TimePDT,TemperatureF,Dew PointF,Humidity,Sea Level PressureIn,VisibilityMPH,Wind Direction,Wind SpeedMPH,Gust SpeedMPH,PrecipitationIn,Events,Conditions,WindDirDegrees,DateUTC
12:26 AM,33.1,28.0,82,30.08,10.0,Variable,4.6,-,0.00,,Overcast,0,2014-03-20 07:26:00
12:35 AM,33.1,26.1,75,30.07,10.0,North,-9999.0,-,0.00,,Overcast,0,2014-03-20 07:35:00
12:56 AM,33.1,24.1,70,30.10,10.0,Variable,5.8,-,0.00,,Overcast,0,2014-03-20 07:56:00
1:56 AM,32.0,21.9,66,30.11,10.0,West,8.1,-,N/A,,Overcast,260,2014-03-20 08:56:00
2:56 AM,30.9,19.9,64,30.13,10.0,North,-9999.0,-,N/A,,Overcast,0,2014-03-20 09:56:00
3:56 AM,28.9,19.9,69,30.14,10.0,Variable,4.6,-,N/A,,Clear,0,2014-03-20 10:56:00
4:56 AM,28.9,21.0,72,30.16,10.0,Variable,3.5,-,N/A,,Mostly Cloudy,0,2014-03-20 11:56:00
5:39 AM,28.0,19.9,72,30.12,10.0,Variable,4.6,-,N/A,,Scattered Clouds,0,2014-03-20 12:39:00
5:56 AM,27.0,19.9,75,30.18,-9999.0,Calm,Calm,-,N/A,,Partly Cloudy,0,2014-03-20 12:56:00
6:56 AM,27.0,19.0,72,30.20,10.0,Calm,Calm,-,N/A,,Partly Cloudy,0,2014-03-20 13:56:00
7:56 AM,27.0,19.0,72,30.21,10.0,Calm,Calm,-,N/A,,Clear,0,2014-03-20 14:56:00
8:56 AM,28.0,19.9,72,30.23,10.0,WSW,3.5,-,N/A,,Mostly Cloudy,240,2014-03-20 15:56:00
9:56 AM,30.0,19.9,66,30.25,10.0,Calm,Calm,-,N/A,,Overcast,0,2014-03-20 16:56:00
10:38 AM,32.0,21.0,64,30.18,10.0,Variable,3.5,-,N/A,,Mostly Cloudy,0,2014-03-20 17:38:00
10:56 AM,30.9,19.9,64,30.26,10.0,Variable,4.6,-,N/A,,Overcast,0,2014-03-20 17:56:00
11:56 AM,33.1,21.0,61,30.26,9.0,Variable,3.5,-,0.00,Snow,Light Snow,0,2014-03-20 18:56:00
12:56 PM,37.0,18.0,46,30.25,-9999.0,Variable,5.8,-,0.00,,Mostly Cloudy,0,2014-03-20 19:56:00
1:56 PM,36.0,19.0,50,30.24,10.0,Variable,3.5,-,0.00,,Mostly Cloudy,0,2014-03-20 20:56:00
2:56 PM,39.0,16.0,39,30.23,-9999.0,West,9.2,-,N/A,,Mostly Cloudy,280,2014-03-20 21:56:00
3:56 PM,37.9,15.1,39,30.24,10.0,Variable,5.8,-,N/A,,Overcast,0,2014-03-20 22:56:00
4:56 PM,37.0,14.0,39,30.24,10.0,Calm,Calm,-,N/A,,Overcast,0,2014-03-20 23:56:00
5:56 PM,37.0,15.1,41,30.24,10.0,Calm,Calm,-,N/A,,Scattered Clouds,0,2014-03-21 00:56:00
6:56 PM,35.1,14.0,42,30.24,10.0,Variable,3.5,-,N/A,,Partly Cloudy,0,2014-03-21 01:56:00
7:56 PM,30.0,16.0,56,30.26,10.0,Calm,Calm,-,N/A,,Clear,0,2014-03-21 02:56:00
8:56 PM,28.0,17.1,63,30.27,10.0,Calm,Calm,-,N/A,,Clear,0,2014-03-21 03:56:00
9:56 PM,26.1,18.0,71,30.28,10.0,Calm,Calm,-,N/A,,Clear,0,2014-03-21 04:56:00
10:56 PM,25.0,19.0,78,30.30,10.0,Calm,Calm,-,N/A,,Clear,0,2014-03-21 05:56:00
11:56 PM,26.1,19.9,78,30.29,10.0,Calm,Calm,-,N/A,,Overcast,0,2014-03-21 06:56:00